Miscellaneous Local Product
Issued by NWS Hastings, NE

Home | Current Version | Previous Version | Graphics & Text | Print | Product List | Glossary On
Versions: 1 2 3 4 5 6 7 8 9 10 11 12 13 14 15 16 17 18 19 20 21 22 23 24 25 26 27 28 29 30 31 32 33 34 35 36 37 38 39 40 41 42 43 44 45 46 47 48 49 50
000
AXUS43 KGID 161802
MISGRI

GID CWA HOURLY WEATHER ROUNDUP
NATIONAL WEATHER SERVICE HASTINGS NE
1200 PM CST MON JAN 16 2017

NOTE: "FAIR" INDICATES FEW OR NO CLOUDS BELOW 12,000 FEET WITH NO
SIGNIFICANT WEATHER AND/OR OBSTRUCTIONS TO VISIBILITY.

...SOUTH CENTRAL NEBRASKA...

CITY           SKY/WX    TMP DP  RH WIND       PRES   REMARKS
GRAND ISLAND     N/A    N/A N/A N/A MISG      29.93F
HASTINGS       FRZ RAIN  32  30  92 N16       29.91F FOG     WCI  21
KEARNEY        CLOUDY    32  28  86 N8        29.93F WCI  25
ORD            LGT RAIN  33  30  88 N13       29.97F FOG     WCI  24
YORK           RAIN      32  32 100 CALM      29.91F
AURORA         MIX PCPN  32  32  99 N5        29.91F WCI  27
LEXINGTON      RAIN      33  32  95 N7        29.95F WCI  27
HOLDREGE       MIX PCPN  32  31  96 N5        29.92F WCI  28
HEBRON         CLOUDY    32  32 100 N3        29.89F FOG

...NEBRASKA PANHANDLE...

CITY           SKY/WX    TMP DP  RH WIND       PRES   REMARKS
CHADRON        CLOUDY    29  16  58 VRB7      30.13F WCI  22
ALLIANCE       CLOUDY    34  16  47 N18       30.06S WCI  23
SCOTTSBLUFF    CLOUDY    38  19  46 NW10      30.10S WCI  31
SIDNEY         CLOUDY    33  21  61 N18       30.05R WCI  22

...WESTERN AND NORTH CENTRAL NEBRASKA...

CITY           SKY/WX    TMP DP  RH WIND       PRES   REMARKS
VALENTINE      CLOUDY    32  17  54 NW13      30.04F WCI  22
AINSWORTH      CLOUDY    31  26  80 NW8       30.02F WCI  24
ONEILL         MIX PCPN  29  27  92 N13       30.01F WCI  19
BROKEN BOW     LGT RAIN  34  32  92 N18       29.96S FOG     WCI  23
IMPERIAL       LGT RAIN  34  31  88 N18       29.97S WCI  23
NORTH PLATTE   LGT RAIN  34  31  88 N10       29.98S WCI  26
MCCOOK         CLOUDY    33  33 100 N8        29.95F FOG     WCI  26

...EASTERN NEBRASKA...

CITY           SKY/WX    TMP DP  RH WIND       PRES   REMARKS
NORFOLK        FRZ RAIN  31  29  92 N12       29.98F FOG     WCI  22
SO SIOUX CITY  LGT RAIN  34  32  92 NE7       30.01F FOG     WCI  28
TEKAMAH        RAIN      33  31  92 N10       29.96F FOG     WCI  25
COLUMBUS       CLOUDY    32  30  93 CALM      29.94F
ALBION         LGT SNOW  32  31  94 N6        29.98F WCI  27
OMAHA EPPLEY   LGT RAIN  33  29  85 N7        29.94F FOG     WCI  27
MILLARD        CLOUDY    35  33  94 CALM      29.93F FOG
LINCOLN        LGT RAIN  33  32  96 NE10      29.93F FOG     WCI  25
NEBRASKA CITY  FOG       32  32 100 NE5       29.89F VSB 1   WCI  28
BEATRICE       CLOUDY    33  33  99 NE5       29.89F FOG     WCI  28
FALLS CITY     CLOUDY    34  33  96 E7        29.88F WCI  28

...NORTHERN KANSAS...

CITY           SKY/WX    TMP DP  RH WIND       PRES   REMARKS
GOODLAND       LGT SNOW  32  32 100 N16       29.93F FOG     WCI  21
HILL CITY      LGT SNOW  33  33 100 N12       29.92S FOG     WCI  24
NORTON         LGT SNOW  34  30  86 N5        29.91F WCI  30
PHILLIPSBURG   MIX PCPN  34  34 100 N6        29.92S WCI  29
SMITH CENTER   MIX PCPN  30  30 100 N5        29.90F WCI  25
HAYS           CLOUDY    32  31  96 N12       29.89S FOG     WCI  23
RUSSELL        CLOUDY    32  31  96 N10       29.86F FOG     WCI  24
CONCORDIA      MIX PCPN  32  32 100 N8        29.86F FOG     WCI  25
SALINA         FOG       68  34  28 N7        29.86S VSB 1/2
TOPEKA         CLOUDY    43  40  89 E8        29.84F



USA.gov is the U.S. government's official web portal to all federal, state and local government web resources and services.